Simultaneous Nadir Overpasses (SNOs) Predictions

Prediction of SNOs between GOES-15 and LANDSAT-8 Satellite Orbit:

Table of predicted SNOs for the next 14.0 days since TLE Epoch: 9/21/2019
Index Date Time (GOES-15) GOES-15 Lat,Lon LANDSAT-8 Lat,Lon Distance(km) Time Diff (sec)
1 09/21/2019 18:27:30 -0.28,-127.93 -1.21,-123.55 498.19 80
2 09/22/2019 06:46:14 0.29,-127.88 0.08,-128.74 98.78 80
3 09/24/2019 06:36:43 0.29,-127.80 0.70,-125.78 229.59 80
4 09/24/2019 18:55:19 -0.30,-127.82 0.39,-130.94 355.47 80
5 09/26/2019 18:43:08 -0.30,-127.74 -0.22,-127.98 27.71 80
6 09/28/2019 18:33:37 -0.30,-127.67 -0.84,-125.02 299.97 80
7 09/29/2019 06:55:02 0.31,-127.61 -0.22,-130.22 296.20 80
8 10/01/2019 06:40:10 0.31,-127.53 0.34,-127.25 31.13 80
9 10/03/2019 06:30:39 0.30,-127.44 0.96,-124.30 357.76 80
10 10/03/2019 18:49:15 -0.31,-127.45 0.13,-129.45 228.54 80




NCC Satellite Simultaneous Nadir Overpasses (SNOs) Prediction Service
